User: anonymous
Location: Unspecified
(0.0000°N, 0.0000°E)
Time: 14:09:31
(UTC+02:00)
Language:

AO-7 - Orbit

View from above orbital plane
View from above orbital plane
View from above satellite
View from above satellite

Ground track
Ground track

The orbit data is extracted from the following two-line orbital elements,

1 07530U 74089B   14110.19868182 -.00000015  00000-0  17710-3 0  9438
2 07530 101.4673 093.9499 0012299 049.8832 017.2199 12.53604175804251
Epoch (UTC): 20 April 2014 04:46:06
Eccentricity: 0.0012299
inclination: 101.4673°
perigee height: 1440 km
apogee height: 1459 km
right ascension of ascending node: 93.9499°
argument of perigee: 49.8832°
revolutions per day: 12.53604175
mean anomaly at epoch: 17.2199°
orbit number at epoch: 80425

The dashed part of the orbit path shows where the satellite is in the earth's shadow,  

DLR